Home   Weather   Karachi   Past weeks
Flag for Pakistan

Past Weather in Karachi, Sindh, Pakistan — Yesterday and Last 2 Weeks

Now
72 °F

Drizzle. Partly sunny.


Feels Like: 76 °F
Forecast: 80 / 66 °F
Wind: 25 mph from Northeast

Location: Karachi Airport

Current Time: Dec 6, 2019 at 8:41:34 am

Latest Report: Dec 6, 2019 at 7:30 am


Visibility: 2 mi

Pressure: 30.15 "Hg

Humidity: 29%

Dew Point: 37 °F

Location of KarachiLocation

Past Weather in Karachi — Graph

°F

Karachi Temperature Yesterday

Maximum temperature yesterday: 82 °F (at 12:55 pm)
Minimum temperature yesterday: 68 °F (at 4:55 am)
Average temperature yesterday: 75 °F

High & Low Weather Summary for the Past Weeks

 TemperatureHumidityPressure
High88 °F (Nov 21, 2:00 pm)88% (Nov 21, 7:00 am)30.15 "Hg (Nov 21, 7:00 am)
Low52 °F (Dec 2, 6:25 am)8% (Dec 5, 2:30 pm)29.89 "Hg (Nov 26, 3:55 pm)
Average72 °F35%30.03 "Hg
* Reported Nov 21 7:00 am — Dec 6 7:00 am, Karachi. Weather by CustomWeather, © 2019

Note: Actual official high and low records may vary slightly from our data, if they occured in-between our weather recording intervals... More about our weather records

Karachi Weather History for the Previous 24 Hours

Scroll right to see more
 ConditionsComfort  
Time TempWeatherWind HumidityBarometerVisibility
7:00 am
Fri, Dec 6
73 °FPassing clouds.21 mph22%30.12 "Hg3 mi
6:30 am72 °FPassing clouds.21 mph23%30.12 "Hg3 mi
6:00 am72 °FPassing clouds.21 mph25%30.09 "Hg3 mi
5:30 am72 °FPassing clouds.22 mph25%30.09 "Hg3 mi
5:00 am72 °FPassing clouds.22 mph25%30.09 "Hg4 mi
4:30 am72 °FPassing clouds.23 mph27%30.09 "Hg4 mi
4:00 am72 °FPassing clouds.15 mph25%30.09 "Hg4 mi
3:30 am72 °FPassing clouds.14 mph22%30.09 "Hg4 mi
2:30 am73 °FPassing clouds.8 mph17%30.09 "Hg4 mi
2:00 am73 °FPassing clouds.14 mph17%30.09 "Hg4 mi
1:30 am73 °FPassing clouds.12 mph15%30.09 "Hg4 mi
1:00 am73 °FPassing clouds.12 mph15%30.09 "Hg4 mi
12:30 am73 °FPassing clouds.16 mph16%30.09 "Hg4 mi
12:00 am73 °FPassing clouds.14 mph15%30.09 "Hg4 mi
11:30 pm
Thu, Dec 5
73 °FPassing clouds.10 mph27%30.09 "Hg4 mi
11:00 pm75 °FPassing clouds.10 mph25%30.12 "Hg4 mi
10:30 pm75 °FPassing clouds.12 mph16%30.12 "Hg4 mi
10:00 pm75 °FPassing clouds.14 mph18%30.12 "Hg4 mi
9:30 pm75 °FPassing clouds.17 mph19%30.12 "Hg4 mi
8:25 pm75 °FPassing clouds.17 mph19%30.12 "Hg4 mi
8:00 pm75 °FPassing clouds.14 mph22%30.09 "Hg4 mi
7:30 pm75 °FPassing clouds.14 mph22%30.09 "Hg4 mi
7:00 pm75 °FPassing clouds.14 mph21%30.09 "Hg4 mi
5:55 pm77 °FPassing clouds.13 mph19%30.07 "Hg4 mi
5:25 pm79 °FScattered clouds.9 mph18%30.07 "Hg4 mi
4:55 pm81 °FScattered clouds.17 mph17%30.04 "Hg4 mi
3:30 pm82 °FScattered clouds.18 mph8%30.04 "Hg4 mi
3:00 pm82 °FScattered clouds.20 mph8%30.07 "Hg4 mi
2:30 pm82 °FScattered clouds.18 mph8%30.07 "Hg4 mi
1:25 pm82 °FScattered clouds.17 mph13%30.09 "Hg4 mi
12:55 pm82 °FScattered clouds.18 mph13%30.09 "Hg4 mi
12:25 pm81 °FScattered clouds.20 mph15%30.09 "Hg4 mi
11:55 am81 °FScattered clouds.21 mph17%30.12 "Hg4 mi
11:25 am79 °FScattered clouds.20 mph18%30.12 "Hg3 mi
10:55 am77 °FScattered clouds.18 mph19%30.15 "Hg3 mi
10:25 am77 °FScattered clouds.10 mph21%30.15 "Hg3 mi
9:55 am77 °FScattered clouds.10 mph21%30.15 "Hg3 mi
8:55 am73 °FScattered clouds.14 mph25%30.12 "Hg3 mi
Weather by CustomWeather, © 2019

See weather overview

Advertising